Location: Unspecified
(0.0000°N, 0.0000°E)
Time: 07:39:22
(UTC+00:00)

Vanguard 2 Rocket - Pass Details

Date: 21 December 2018
Orbit: 554 x 3326 km, 32.9° (Epoch: 15 June)

Event Time Altitude Azimuth Distance (km) Brightness Sun altitude
Rises 09:50:04 0° 342° (NNW) 3,119 9.3 51.1°
Reaches altitude 10° 09:53:13 10° 7° (N) 2,494 9.1 51.7°
Maximum altitude 09:56:38 15° 43° (NE) 2,481 9.3 52.4°
Drops below altitude 10° 10:01:02 10° 76° (ENE) 3,366 10.2 53.2°
Sets 10:06:31 0° 96° (E) 4,987 11.1 54.2°
